 day,  time,  air_temp(C),  RH(%),  ground_temp10cm(C),  ground_temp20cm(C),  ground_temp40cm(C),  precipitation(mm/h),  Solar_Radiation(MJ/m2h),  lack, 
 04/06/01, 01:00,  10.7,  99,  14.8,  15.6,  14.7,   0.0,  0.00, 
 04/06/01, 02:00,  10.4,  99,  14.7,  15.6,  14.7,   0.5,  0.00, 
 04/06/01, 03:00,  10.4,  99,  14.6,  15.4,  14.7,   0.5,  0.00, 
 04/06/01, 04:00,  10.3,  99,  14.5,  15.3,  14.7,   2.0,  0.00, 
 04/06/01, 05:00,   9.7,  99,  14.3,  15.2,  14.7,   0.5,  0.00, 
 04/06/01, 06:00,   9.6,  99,  14.2,  15.2,  14.6,   0.0,  0.00, 
 04/06/01, 07:00,   9.4,  99,  14.1,  15.0,  14.6,   0.0,  0.14, 
 04/06/01, 08:00,   9.9,  99,  14.1,  14.9,  14.7,   0.0,  0.57, 
 04/06/01, 09:00,  10.2,  99,  14.1,  15.0,  14.7,   0.0,  0.82, 
 04/06/01, 10:00,  10.8,  99,  14.3,  14.9,  14.6,   0.0,  1.07, 
 04/06/01, 11:00,  11.9,  99,  14.4,  14.7,  14.6,   0.5,  1.28, 
 04/06/01, 12:00,  13.0,  99,  14.8,  14.8,  14.5,   0.0,  1.89, 
 04/06/01, 13:00,  15.3,  82,  15.3,  14.8,  14.5,   0.0,  3.07, 
 04/06/01, 14:00,  16.8,  72,  15.8,  14.8,  14.5,   0.0,  2.54, 
 04/06/01, 15:00,  17.0,  72,  16.1,  14.8,  14.5,   0.0,  2.58, 
 04/06/01, 16:00,  15.7,  76,  16.4,  15.0,  14.5,   0.0,  2.53, 
 04/06/01, 17:00,  14.2,  83,  16.8,  15.1,  14.5,   0.0,  1.81, 
 04/06/01, 18:00,  12.2,  91,  17.0,  15.2,  14.5,   0.0,  0.78, 
 04/06/01, 19:00,  10.1,  99,  16.8,  15.3,  14.5,   0.0,  0.18, 
 04/06/01, 20:00,   9.7,  99,  16.6,  15.4,  14.5,   0.0,  0.00, 
 04/06/01, 21:00,  11.0,  83,  16.1,  15.4,  14.5,   0.0,  0.00, 
 04/06/01, 22:00,   8.1,  98,  15.8,  15.4,  14.4,   0.0,  0.00, 
 04/06/01, 23:00,   8.0,  88,  15.4,  15.4,  14.4,   0.0,  0.00, 
 04/06/02, 00:00,   6.8,  90,  15.0,  15.4,  14.4,   0.0,  0.00, 
 04/06/02, 01:00,   7.2,  80,  14.6,  15.3,  14.3,   0.0,  0.00, 
 04/06/02, 02:00,   6.3,  81,  14.3,  15.2,  14.4,   0.0,  0.00, 
 04/06/02, 03:00,   4.9,  81,  14.0,  15.2,  14.3,   0.0,  0.00, 
 04/06/02, 04:00,   5.0,  80,  13.6,  15.1,  14.3,   0.0,  0.00, 
 04/06/02, 05:00,   4.5,  81,  13.3,  14.8,  14.4,   0.0,  0.00, 
 04/06/02, 06:00,   6.1,  74,  13.0,  14.8,  14.4,   0.0,  0.21, 
 04/06/02, 07:00,   8.6,  77,  12.9,  14.7,  14.4,   0.0,  0.69, 
 04/06/02, 08:00,  11.2,  59,  12.9,  14.5,  14.3,   0.0,  1.36, 
 04/06/02, 09:00,  11.1,  82,  13.2,  14.4,  14.4,   0.0,  1.68, 
 04/06/02, 10:00,  12.4,  78,  13.5,  14.3,  14.4,   0.0,  2.16, 
 04/06/02, 11:00,  14.3,  70,  14.0,  14.2,  14.4,   0.0,  2.90, 
 04/06/02, 12:00,  15.0,  65,  14.9,  14.2,  14.4,   0.0,  3.04, 
 04/06/02, 13:00,  15.8,  56,  15.8,  14.2,  14.3,   0.0,  2.94, 
 04/06/02, 14:00,  16.6,  51,  16.2,  14.4,  14.2,   0.0,  2.81, 
 04/06/02, 15:00,  18.2,  36,  16.4,  14.5,  14.2,   0.0,  3.03, 
 04/06/02, 16:00,  17.0,  47,  16.4,  14.7,  14.2,   0.0,  1.93, 
 04/06/02, 17:00,  16.2,  54,  16.7,  14.8,  14.3,   0.0,  1.39, 
 04/06/02, 18:00,  13.9,  65,  16.8,  15.0,  14.2,   0.0,  0.52, 
 04/06/02, 19:00,  11.9,  74,  16.7,  15.1,  14.2,   0.0,  0.17, 
 04/06/02, 20:00,  10.2,  85,  16.4,  15.2,  14.2,   0.0,  0.00, 
 04/06/02, 21:00,   9.9,  86,  16.1,  15.3,  14.2,   0.0,  0.00, 
 04/06/02, 22:00,   9.9,  82,  15.8,  15.3,  14.2,   0.0,  0.00, 
 04/06/02, 23:00,   8.9,  88,  15.5,  15.2,  14.1,   0.0,  0.00, 
 04/06/03, 00:00,   9.1,  95,  15.2,  15.2,  14.1,   0.0,  0.00, 
 04/06/03, 01:00,   9.2,  88,  14.9,  15.2,  14.1,   0.0,  0.00, 
 04/06/03, 02:00,   8.8,  84,  14.7,  15.2,  14.1,   0.0,  0.00, 
 04/06/03, 03:00,   8.8,  79,  14.4,  15.1,  14.2,   0.0,  0.00, 
 04/06/03, 04:00,   8.5,  85,  14.2,  14.9,  14.3,   0.0,  0.00, 
 04/06/03, 05:00,   7.7,  90,  13.9,  14.8,  14.2,   0.0,  0.00, 
 04/06/03, 06:00,   9.0,  81,  13.7,  14.7,  14.3,   0.0,  0.19, 
 04/06/03, 07:00,  10.9,  76,  13.6,  14.7,  14.3,   0.0,  0.91, 
 04/06/03, 08:00,  12.5,  73,  13.7,  14.5,  14.2,   0.0,  1.69, 
 04/06/03, 09:00,  15.3,  63,  14.1,  14.5,  14.2,   0.0,  2.17, 
 04/06/03, 10:00,  15.8,  67,  14.7,  14.5,  14.3,   0.0,  2.71, 
 04/06/03, 11:00,  17.8,  57,  15.4,  14.4,  14.1,   0.0,  3.44, 
 04/06/03, 12:00,  19.8,  42,  16.6,  14.5,  14.2,   0.0,  3.73, 
 04/06/03, 13:00,  19.8,  39,  17.9,  14.6,  14.2,   0.0,  3.66, 
 04/06/03, 14:00,  19.7,  26,  18.3,  14.9,  14.2,   0.0,  3.17, 
 04/06/03, 15:00,  19.3,  23,  18.3,  15.1,  14.1,   0.0,  2.86, 
 04/06/03, 16:00,  18.5,  26,  18.2,  15.4,  14.2,   0.0,  2.43, 
 04/06/03, 17:00,  17.3,  34,  18.4,  15.6,  14.2,   0.0,  1.73, 
 04/06/03, 18:00,  15.6,  37,  18.3,  15.6,  14.2,   0.0,  0.95, 
 04/06/03, 19:00,  12.6,  53,  18.0,  15.9,  14.2,   0.0,  0.24, 
 04/06/03, 20:00,  11.7,  83,  17.6,  15.9,  14.1,   0.0,  0.00, 
 04/06/03, 21:00,  11.2,  90,  17.2,  16.1,  14.2,   0.0,  0.00, 
 04/06/03, 22:00,   9.4,  99,  16.7,  16.1,  14.2,   0.0,  0.00, 
 04/06/03, 23:00,   8.4,  99,  16.3,  16.1,  14.3,   0.0,  0.00, 
 04/06/04, 00:00,   8.2,  98,  15.9,  15.9,  14.3,   0.0,  0.00, 
 04/06/04, 01:00,   7.6,  99,  15.6,  15.8,  14.3,   0.0,  0.00, 
 04/06/04, 02:00,   7.1,  99,  15.2,  15.7,  14.3,   0.0,  0.00, 
 04/06/04, 03:00,   7.1,  99,  14.9,  15.6,  14.2,   0.0,  0.00, 
 04/06/04, 04:00,   6.4,  99,  14.6,  15.6,  14.4,   0.0,  0.00, 
 04/06/04, 05:00,   6.3,  99,  14.2,  15.4,  14.4,   0.0,  0.00, 
 04/06/04, 06:00,   9.8,  74,  14.0,  15.3,  14.4,   0.0,  0.24, 
 04/06/04, 07:00,  12.5,  76,  13.8,  15.1,  14.4,   0.0,  1.10, 
 04/06/04, 08:00,  13.5,  69,  14.0,  15.1,  14.4,   0.0,  1.87, 
 04/06/04, 09:00,  15.0,  70,  14.5,  14.9,  14.3,   0.0,  2.56, 
 04/06/04, 10:00,  17.7,  57,  15.1,  14.8,  14.3,   0.0,  3.13, 
 04/06/04, 11:00,  18.0,  52,  16.1,  14.9,  14.2,   0.0,  3.48, 
 04/06/04, 12:00,  19.7,  46,  17.2,  14.9,  14.3,   0.0,  3.65, 
 04/06/04, 13:00,  21.6,  28,  18.5,  15.1,  14.4,   0.0,  3.64, 
 04/06/04, 14:00,  22.3,  29,  18.9,  15.3,  14.4,   0.0,  3.38, 
 04/06/04, 15:00,  23.0,  32,  18.8,  15.6,  14.4,   0.0,  2.94, 
 04/06/04, 16:00,  22.9,  33,  18.7,  15.7,  14.4,   0.0,  2.39, 
 04/06/04, 17:00,  21.5,  50,  19.0,  16.0,  14.4,   0.0,  1.61, 
 04/06/04, 18:00,  17.7,  60,  19.0,  16.2,  14.4,   0.0,  0.88, 
 04/06/04, 19:00,  15.7,  71,  18.8,  16.4,  14.4,   0.0,  0.22, 
 04/06/04, 20:00,  12.7,  84,  18.4,  16.5,  14.4,   0.0,  0.00, 
 04/06/04, 21:00,  12.4,  85,  18.0,  16.6,  14.4,   0.0,  0.00, 
 04/06/04, 22:00,  11.7,  89,  17.6,  16.6,  14.4,   0.0,  0.00, 
 04/06/04, 23:00,  10.3,  96,  17.2,  16.6,  14.5,   0.0,  0.00, 
 04/06/05, 00:00,   8.7,  99,  16.8,  16.6,  14.4,   0.0,  0.00, 
 04/06/05, 01:00,   8.7,  99,  16.4,  16.5,  14.4,   0.0,  0.00, 
 04/06/05, 02:00,   8.2,  99,  16.0,  16.4,  14.5,   0.0,  0.00, 
 04/06/05, 03:00,   8.2,  99,  15.7,  16.3,  14.4,   0.0,  0.00, 
 04/06/05, 04:00,   9.2,  98,  15.3,  16.2,  14.6,   0.0,  0.00, 
 04/06/05, 05:00,   9.0,  95,  15.0,  16.0,  14.5,   0.0,  0.00, 
 04/06/05, 06:00,  10.2,  93,  14.7,  15.8,  14.5,   0.0,  0.24, 
 04/06/05, 07:00,  15.1,  67,  14.6,  15.7,  14.5,   0.0,  1.09, 
 04/06/05, 08:00,  15.7,  65,  14.9,  15.6,  14.6,   0.0,  1.84, 
 04/06/05, 09:00,  16.5,  65,  15.4,  15.5,  14.6,   0.0,  2.50, 
 04/06/05, 10:00,  18.5,  55,  16.0,  15.5,  14.5,   0.0,  3.08, 
 04/06/05, 11:00,  19.6,  52,  16.8,  15.5,  14.7,   0.0,  3.46, 
 04/06/05, 12:00,  21.1,  45,  18.0,  15.5,  14.7,   0.0,  3.63, 
 04/06/05, 13:00,  21.7,  46,  19.3,  15.7,  14.7,   0.0,  3.57, 
 04/06/05, 14:00,  23.1,  49,  19.7,  15.9,  14.5,   0.0,  3.29, 
 04/06/05, 15:00,  23.4,  48,  19.7,  16.2,  14.5,   0.0,  2.87, 
 04/06/05, 16:00,  21.2,  51,  19.7,  16.4,  14.7,   0.0,  2.33, 
 04/06/05, 17:00,  20.9,  60,  19.9,  16.6,  14.7,   0.0,  1.70, 
 04/06/05, 18:00,  18.5,  67,  20.0,  16.8,  14.7,   0.0,  0.96, 
 04/06/05, 19:00,  17.1,  71,  19.8,  17.0,  14.7,   0.0,  0.27, 
 04/06/05, 20:00,  14.7,  83,  19.5,  17.1,  14.7,   0.0,  0.00, 
 04/06/05, 21:00,  12.9,  86,  19.0,  17.2,  14.7,   0.0,  0.00, 
 04/06/05, 22:00,  12.4,  89,  18.6,  17.3,  14.7,   0.0,  0.00, 
 04/06/05, 23:00,  11.9,  87,  18.2,  17.3,  14.8,   0.0,  0.00, 
 04/06/06, 00:00,  11.9,  91,  17.8,  17.2,  14.8,   0.0,  0.00, 
 04/06/06, 01:00,  11.5,  95,  17.4,  17.2,  14.8,   0.0,  0.00, 
 04/06/06, 02:00,  13.1,  85,  17.0,  17.0,  14.8,   0.0,  0.00, 
 04/06/06, 03:00,  11.8,  95,  16.7,  16.9,  14.9,   0.0,  0.00, 
 04/06/06, 04:00,  13.3,  85,  16.5,  16.8,  14.9,   0.0,  0.00, 
 04/06/06, 05:00,  12.8,  89,  16.3,  16.7,  14.7,   0.0,  0.00, 
 04/06/06, 06:00,  14.5,  81,  16.1,  16.7,  14.8,   0.0,  0.20, 
 04/06/06, 07:00,  15.6,  83,  16.1,  16.6,  14.9,   0.0,  0.62, 
 04/06/06, 08:00,  17.6,  73,  16.3,  16.5,  15.0,   0.0,  1.14, 
 04/06/06, 09:00,  17.2,  76,  16.4,  16.4,  15.0,   0.0,  1.44, 
 04/06/06, 10:00,  17.6,  76,  16.8,  16.2,  15.0,   0.0,  1.38, 
 04/06/06, 11:00,  18.5,  86,  17.1,  16.3,  15.1,   0.0,  1.79, 
 04/06/06, 12:00,  17.1,  94,  17.6,  16.3,  15.0,   0.0,  1.65, 
 04/06/06, 13:00,  16.8,  97,  17.9,  16.4,  15.0,   0.0,  1.22, 
 04/06/06, 14:00,  18.1,  92,  18.2,  16.4,  15.0,   0.0,  1.85, 
 04/06/06, 15:00,  17.0,  99,  18.5,  16.5,  15.0,   0.0,  1.16, 
 04/06/06, 16:00,  16.6,  99,  18.7,  16.6,  15.0,   0.0,  0.50, 
 04/06/06, 17:00,  17.2,  99,  18.7,  16.7,  15.0,   0.0,  0.37, 
 04/06/06, 18:00,  16.6,  99,  18.6,  16.8,  15.0,   0.0,  0.22, 
 04/06/06, 19:00,  16.2,  99,  18.5,  16.9,  15.0,   0.0,  0.04, 
 04/06/06, 20:00,  16.5,  99,  18.3,  16.9,  15.1,   0.0,  0.00, 
 04/06/06, 21:00,  16.5,  99,  18.2,  16.9,  15.1,   0.0,  0.00, 
 04/06/06, 22:00,  16.5,  99,  18.0,  16.9,  15.1,   0.0,  0.00, 
 04/06/06, 23:00,  16.1,  99,  17.8,  16.9,  15.1,   0.0,  0.00, 
 04/06/07, 00:00,  16.2,  99,  17.7,  16.9,  15.1,   0.0,  0.00, 
 04/06/07, 01:00,  15.7,  99,  17.6,  17.0,  15.1,   0.0,  0.00, 
 04/06/07, 02:00,  15.5,  99,  17.4,  16.9,  15.1,   0.0,  0.00, 
 04/06/07, 03:00,  15.7,  99,  17.3,  16.8,  15.1,   0.0,  0.00, 
 04/06/07, 04:00,  15.9,  99,  17.1,  16.8,  15.2,   0.0,  0.00, 
 04/06/07, 05:00,  15.8,  99,  17.0,  16.8,  15.2,   0.0,  0.00, 
 04/06/07, 06:00,  15.9,  99,  16.9,  16.8,  15.2,   0.0,  0.01, 
 04/06/07, 07:00,  16.2,  99,  16.9,  16.8,  15.2,   0.0,  0.17, 
 04/06/07, 08:00,  17.0,  99,  16.9,  16.7,  15.2,   0.0,  0.73, 
 04/06/07, 09:00,  17.7,  99,  17.0,  16.7,  15.2,   0.0,  0.97, 
 04/06/07, 10:00,  17.5,  99,  17.2,  16.6,  15.1,   0.0,  1.11, 
 04/06/07, 11:00,  18.2,  99,  17.6,  16.6,  15.2,   0.0,  1.76, 
 04/06/07, 12:00,  19.9,  98,  18.2,  16.6,  15.1,   0.0,  2.56, 
 04/06/07, 13:00,  20.8,  94,  19.0,  16.7,  15.1,   0.0,  2.32, 
 04/06/07, 14:00,  17.4,  99,  19.7,  16.8,  15.3,   0.0,  0.81, 
 04/06/07, 15:00,  16.8,  99,  19.7,  16.9,  15.3,   0.0,  0.47, 
 04/06/07, 16:00,  17.8,  99,  19.7,  17.2,  15.3,   0.0,  0.96, 
 04/06/07, 17:00,  16.9,  99,  19.7,  17.3,  15.3,   0.0,  0.39, 
 04/06/07, 18:00,  16.5,  99,  19.6,  17.5,  15.2,   0.0,  0.10, 
 04/06/07, 19:00,  16.4,  99,  19.4,  17.6,  15.2,   0.0,  0.03, 
 04/06/07, 20:00,  16.0,  99,  19.3,  17.7,  15.2,   0.0,  0.00, 
 04/06/07, 21:00,  16.0,  99,  18.9,  17.7,  15.3,   0.0,  0.00, 
 04/06/07, 22:00,  15.7,  99,  18.7,  17.7,  15.3,   0.0,  0.00, 
 04/06/07, 23:00,  15.7,  99,  18.5,  17.7,  15.3,   0.0,  0.00, 
 04/06/08, 00:00,  15.6,  99,  18.4,  17.7,  15.3,   0.0,  0.00, 
 04/06/08, 01:00,  15.6,  99,  18.1,  17.7,  15.4,   6.5,  0.00, 
 04/06/08, 02:00,  15.5,  99,  17.9,  17.8,  15.5,   3.0,  0.00, 
 04/06/08, 03:00,  15.5,  99,  17.7,  17.7,  15.5,   0.0,  0.00, 
 04/06/08, 04:00,  15.4,  99,  17.6,  17.7,  15.4,   0.5,  0.00, 
 04/06/08, 05:00,  15.5,  99,  17.5,  17.6,  15.6,   0.0,  0.00, 
 04/06/08, 06:00,  15.6,  99,  17.4,  17.5,  15.6,   0.0,  0.10, 
 04/06/08, 07:00,  16.2,  99,  17.4,  17.5,  15.7,   0.0,  0.39, 
 04/06/08, 08:00,  16.5,  99,  17.5,  17.4,  15.7,   0.0,  0.60, 
 04/06/08, 09:00,  16.0,  99,  17.5,  17.2,  15.7,   0.5,  0.15, 
 04/06/08, 10:00,  15.8,  99,  17.5,  17.2,  15.6,   8.0,  0.17, 
 04/06/08, 11:00,  16.1,  99,  17.5,  17.2,  15.6,   5.0,  0.31, 
 04/06/08, 12:00,  15.7,  99,  17.6,  17.3,  15.7,   7.5,  0.16, 
 04/06/08, 13:00,  15.9,  99,  17.4,  17.2,  15.9,   3.5,  0.17, 
 04/06/08, 14:00,  15.6,  99,  17.4,  17.3,  15.9,   6.0,  0.15, 
 04/06/08, 15:00,  15.2,  99,  17.3,  17.3,  16.0,   5.5,  0.14, 
 04/06/08, 16:00,  15.3,  99,  17.3,  17.2,  16.0,   1.5,  0.24, 
 04/06/08, 17:00,  15.0,  99,  17.2,  17.2,  15.8,   1.5,  0.15, 
 04/06/08, 18:00,  15.0,  99,  17.2,  17.2,  16.0,   0.0,  0.13, 
 04/06/08, 19:00,  14.8,  99,  17.2,  17.1,  16.0,   0.5,  0.00, 
 04/06/08, 20:00,  14.5,  99,  17.1,  17.1,  16.0,   0.0,  0.00, 
 04/06/08, 21:00,  14.2,  99,  17.0,  17.1,  16.0,   0.0,  0.00, 
 04/06/08, 22:00,  13.6,  99,  16.9,  17.1,  16.1,   0.0,  0.00, 
 04/06/08, 23:00,  13.1,  99,  16.8,  17.0,  16.0,   0.5,  0.00, 
 04/06/09, 00:00,  12.8,  99,  16.7,  16.9,  15.9,   0.0,  0.00, 
 04/06/09, 01:00,  13.2,  99,  16.5,  16.9,  15.8,   0.0,  0.00, 
 04/06/09, 02:00,  13.5,  99,  16.4,  16.8,  15.8,   0.0,  0.00, 
 04/06/09, 03:00,  13.6,  99,  16.3,  16.8,  15.8,   0.0,  0.00, 
 04/06/09, 04:00,  13.6,  99,  16.2,  16.7,  15.8,   0.0,  0.00, 
 04/06/09, 05:00,  13.2,  99,  16.1,  16.6,  15.8,   0.0,  0.00, 
 04/06/09, 06:00,  13.5,  99,  16.1,  16.6,  15.9,   0.0,  0.08, 
 04/06/09, 07:00,  14.3,  99,  16.0,  16.5,  15.8,   0.0,  0.46, 
 04/06/09, 08:00,  15.1,  99,  16.1,  16.5,  15.9,   0.0,  0.87, 
 04/06/09, 09:00,  16.6,  91,  16.3,  16.5,  15.8,   0.0,  1.67, 
 04/06/09, 10:00,  17.4,  89,  16.8,  16.4,  15.8,   0.0,  1.78, 
 04/06/09, 11:00,  18.7,  83,  17.2,  16.4,  15.8,   0.0,  1.89, 
 04/06/09, 12:00,  20.0,  76,  17.7,  16.5,  15.7,   0.0,  2.70, 
 04/06/09, 13:00,  20.5,  74,  18.5,  16.5,  15.9,   0.0,  3.13, 
 04/06/09, 14:00,  18.5,  77,  19.1,  16.7,  15.7,   0.0,  2.13, 
 04/06/09, 15:00,  18.5,  79,  19.4,  16.8,  15.7,   0.0,  1.71, 
 04/06/09, 16:00,  19.1,  73,  19.5,  16.9,  15.6,   0.0,  1.82, 
 04/06/09, 17:00,  17.6,  71,  19.7,  17.2,  15.6,   0.0,  1.22, 
 04/06/09, 18:00,  17.2,  82,  19.6,  17.3,  15.8,   0.0,  0.55, 
 04/06/09, 19:00,  14.8,  96,  19.4,  17.3,  15.7,   0.0,  0.14, 
 04/06/09, 20:00,  13.8,  99,  19.1,  17.5,  15.7,   0.0,  0.00, 
 04/06/09, 21:00,  14.5,  99,  18.8,  17.6,  15.7,   0.0,  0.00, 
 04/06/09, 22:00,  14.2,  99,  18.5,  17.6,  15.7,   0.0,  0.00, 
 04/06/09, 23:00,  13.2,  99,  18.2,  17.6,  15.7,   0.0,  0.00, 
 04/06/10, 00:00,  13.0,  99,  18.0,  17.6,  15.8,   0.0,  0.00, 
 04/06/10, 01:00,  13.1,  99,  17.7,  17.5,  15.7,   0.0,  0.00, 
 04/06/10, 02:00,  13.1,  99,  17.5,  17.5,  15.8,   0.0,  0.00, 
 04/06/10, 03:00,  13.0,  99,  17.3,  17.5,  15.7,   0.0,  0.00, 
 04/06/10, 04:00,  13.3,  99,  17.1,  17.3,  15.7,   0.0,  0.00, 
 04/06/10, 05:00,  13.5,  99,  17.0,  17.2,  15.8,   0.0,  0.00, 
 04/06/10, 06:00,  13.8,  99,  16.8,  17.1,  15.8,   0.0,  0.16, 
 04/06/10, 07:00,  15.2,  96,  16.8,  17.0,  15.8,   0.0,  0.78, 
 04/06/10, 08:00,  15.1,  97,  16.9,  17.0,  15.8,   0.0,  0.88, 
 04/06/10, 09:00,  15.5,  92,  17.0,  16.9,  15.9,   0.0,  0.68, 
 04/06/10, 10:00,  18.2,  85,  17.2,  16.9,  15.8,   0.0,  1.72, 
 04/06/10, 11:00,  18.0,  80,  17.6,  16.8,  15.9,   0.0,  2.39, 
 04/06/10, 12:00,  18.5,  75,  18.3,  16.8,  15.8,   0.0,  2.13, 
 04/06/10, 13:00,  19.0,  69,  18.8,  17.0,  16.0,   0.0,  1.77, 
 04/06/10, 14:00,  18.9,  79,  19.1,  17.1,  15.8,   0.0,  1.73, 
 04/06/10, 15:00,  19.1,  74,  19.4,  17.2,  15.8,   0.0,  1.40, 
 04/06/10, 16:00,  18.1,  82,  19.6,  17.3,  15.9,   0.0,  0.98, 
 04/06/10, 17:00,  18.0,  81,  19.7,  17.5,  15.9,   0.0,  1.16, 
 04/06/10, 18:00,  16.7,  85,  19.7,  17.6,  15.9,   0.0,  0.41, 
 04/06/10, 19:00,  15.4,  88,  19.6,  17.7,  15.9,   0.0,  0.10, 
 04/06/10, 20:00,  13.8,  95,  19.3,  17.8,  15.9,   0.0,  0.00, 
 04/06/10, 21:00,  12.8,  99,  18.9,  17.7,  16.0,   0.0,  0.00, 
 04/06/10, 22:00,  12.5,  99,  18.5,  17.7,  15.9,   0.0,  0.00, 
 04/06/10, 23:00,  12.2,  99,  18.2,  17.7,  15.9,   0.0,  0.00, 
 04/06/11, 00:00,  14.2,  79,  17.9,  17.7,  15.9,   0.0,  0.00, 
 04/06/11, 01:00,  11.7,  99,  17.6,  17.6,  15.8,   0.0,  0.00, 
 04/06/11, 02:00,  11.8,  98,  17.4,  17.5,  15.9,   0.0,  0.00, 
 04/06/11, 03:00,  12.6,  78,  17.1,  17.5,  15.8,   0.0,  0.00, 
 04/06/11, 04:00,  12.0,  86,  16.9,  17.4,  15.9,   0.0,  0.00, 
 04/06/11, 05:00,  13.0,  81,  16.7,  17.4,  15.9,   0.0,  0.00, 
 04/06/11, 06:00,  13.9,  84,  16.5,  17.2,  15.9,   0.0,  0.13, 
 04/06/11, 07:00,  14.5,  90,  16.4,  17.1,  16.0,   0.0,  0.49, 
 04/06/11, 08:00,  14.6,  91,  16.4,  17.0,  16.0,   0.0,  0.49, 
 04/06/11, 09:00,  14.4,  97,  16.5,  16.9,  16.1,   0.0,  0.43, 
 04/06/11, 10:00,  14.2,  99,  16.6,  16.8,  16.1,   0.0,  0.42, 
 04/06/11, 11:00,  13.8,  99,  16.6,  16.8,  16.0,   0.0,  0.56, 
 04/06/11, 12:00,  14.4,  99,  16.7,  16.8,  16.0,   0.0,  0.82, 
 04/06/11, 13:00,  14.9,  99,  16.9,  16.7,  15.9,   0.0,  0.73, 
 04/06/11, 14:00,  15.1,  99,  17.0,  16.7,  16.0,   0.0,  0.76, 
 04/06/11, 15:00,  15.3,  99,  17.2,  16.7,  15.9,   0.5,  0.52, 
 04/06/11, 16:00,  14.9,  99,  17.3,  16.7,  15.9,   1.0,  0.25, 
 04/06/11, 17:00,  14.8,  99,  17.3,  16.7,  15.8,   2.0,  0.23, 
 04/06/11, 18:00,  14.8,  99,  17.3,  16.8,  16.0,   1.5,  0.08, 
 04/06/11, 19:00,  15.7,  99,  17.2,  16.8,  16.0,   2.0,  0.00, 
 04/06/11, 20:00,  14.5,  99,  17.1,  16.8,  15.9,   7.0,  0.00, 
 04/06/11, 21:00,  15.1,  99,  16.9,  16.8,  15.9,   5.5,  0.00, 
 04/06/11, 22:00,  16.9,  94,  16.7,  16.8,  15.9,   0.0,  0.00, 
 04/06/11, 23:00,  16.9,  96,  16.6,  16.8,  15.9,   0.5,  0.00, 
 04/06/12, 00:00,  16.5,  99,  16.6,  16.7,  15.9,   0.0,  0.00, 
 04/06/12, 01:00,  15.9,  99,  16.6,  16.8,  15.9,   0.5,  0.00, 
 04/06/12, 02:00,  15.6,  99,  16.5,  16.6,  15.8,   0.0,  0.00, 
 04/06/12, 03:00,  15.5,  99,  16.6,  16.7,  15.9,   1.0,  0.00, 
 04/06/12, 04:00,  15.1,  99,  16.5,  16.6,  15.9,   0.5,  0.00, 
 04/06/12, 05:00,  14.0,  99,  16.4,  16.6,  15.9,   3.5,  0.00, 
 04/06/12, 06:00,  14.0,  99,  16.4,  16.6,  15.9,   1.0,  0.08, 
 04/06/12, 07:00,  14.5,  99,  16.3,  16.6,  15.9,   0.5,  0.34, 
 04/06/12, 08:00,  14.4,  99,  16.4,  16.5,  15.9,   0.5,  0.44, 
 04/06/12, 09:00,  14.5,  99,  16.4,  16.5,  15.9,   0.0,  0.60, 
 04/06/12, 10:00,  14.4,  99,  16.6,  16.4,  15.8,   0.5,  0.46, 
 04/06/12, 11:00,  14.5,  99,  16.7,  16.5,  15.8,   0.0,  0.63, 
 04/06/12, 12:00,  14.9,  99,  16.8,  16.5,  15.8,   0.5,  0.50, 
 04/06/12, 13:00,  14.8,  99,  16.9,  16.5,  15.9,   0.5,  0.39, 
 04/06/12, 14:00,  14.5,  99,  17.0,  16.5,  15.9,   0.5,  0.64, 
 04/06/12, 15:00,  14.5,  99,  17.1,  16.5,  15.8,   1.0,  0.51, 
 04/06/12, 16:00,  14.0,  99,  17.2,  16.6,  15.8,   1.0,  0.31, 
 04/06/12, 17:00,  13.7,  99,  17.2,  16.6,  15.7,   0.0,  0.27, 
 04/06/12, 18:00,  13.5,  99,  17.1,  16.6,  15.9,   0.0,  0.09, 
 04/06/12, 19:00,  12.5,  99,  17.0,  16.6,  15.9,   0.0,  0.00, 
 04/06/12, 20:00,  12.2,  99,  16.9,  16.7,  15.9,   1.5,  0.00, 
 04/06/12, 21:00,  12.0,  99,  16.7,  16.6,  15.9,   0.5,  0.00, 
 04/06/12, 22:00,  11.5,  99,  16.6,  16.6,  15.9,   0.0,  0.00, 
 04/06/12, 23:00,  11.1,  99,  16.4,  16.6,  15.9,   0.0,  0.00, 
 04/06/13, 00:00,  10.8,  99,  16.2,  16.6,  15.8,   0.0,  0.00, 
 04/06/13, 01:00,  10.2,  99,  16.1,  16.5,  15.8,   0.0,  0.00, 
 04/06/13, 02:00,  10.0,  99,  15.9,  16.5,  15.8,   0.0,  0.00, 
 04/06/13, 03:00,   9.7,  99,  15.7,  16.3,  15.8,   0.0,  0.00, 
 04/06/13, 04:00,   9.1,  99,  15.5,  16.3,  15.8,   0.0,  0.00, 
 04/06/13, 05:00,   8.3,  99,  15.3,  16.2,  15.7,   0.0,  0.00, 
 04/06/13, 06:00,   8.3,  99,  15.1,  16.1,  15.8,   0.0,  0.11, 
 04/06/13, 07:00,   8.1,  96,  14.9,  16.0,  15.8,   0.0,  0.46, 
 04/06/13, 08:00,   8.7,  95,  14.8,  15.9,  15.8,   0.0,  1.10, 
 04/06/13, 09:00,   9.2,  90,  14.9,  15.8,  15.8,   0.0,  1.35, 
 04/06/13, 10:00,  11.0,  87,  15.1,  15.7,  15.8,   0.0,  1.82, 
 04/06/13, 11:00,  12.3,  82,  15.5,  15.7,  15.8,   0.0,  2.98, 
 04/06/13, 12:00,  13.5,  78,  16.3,  15.6,  15.7,   0.0,  3.04, 
 04/06/13, 13:00,  13.2,  75,  17.2,  15.7,  15.7,   0.0,  2.21, 
 04/06/13, 14:00,  14.6,  74,  17.6,  15.8,  15.7,   0.0,  2.19, 
 04/06/13, 15:00,  14.4,  76,  17.8,  15.9,  15.7,   0.0,  1.68, 
 04/06/13, 16:00,  14.7,  72,  17.9,  16.2,  15.7,   0.0,  2.62, 
 04/06/13, 17:00,  13.9,  71,  18.2,  16.3,  15.6,   0.0,  1.83, 
 04/06/13, 18:00,  12.1,  76,  18.2,  16.4,  15.6,   0.0,  1.02, 
 04/06/13, 19:00,  10.5,  78,  17.9,  16.5,  15.6,   0.0,  0.31, 
 04/06/13, 20:00,   8.3,  90,  17.5,  16.6,  15.6,   0.0,  0.00, 
 04/06/13, 21:00,   7.1,  97,  17.1,  16.6,  15.5,   0.0,  0.00, 
 04/06/13, 22:00,   6.9,  96,  16.7,  16.6,  15.6,   0.0,  0.00, 
 04/06/13, 23:00,   6.8,  94,  16.3,  16.6,  15.6,   0.0,  0.00, 
 04/06/14, 00:00,   6.8,  96,  15.9,  16.5,  15.6,   0.0,  0.00, 
 04/06/14, 01:00,   7.3,  97,  15.6,  16.4,  15.6,   0.0,  0.00, 
 04/06/14, 02:00,   7.0,  98,  15.3,  16.3,  15.6,   0.0,  0.00, 
 04/06/14, 03:00,   6.8,  99,  14.9,  16.2,  15.6,   0.0,  0.00, 
 04/06/14, 04:00,   6.6,  99,  14.7,  16.1,  15.6,   0.0,  0.00, 
 04/06/14, 05:00,   6.4,  99,  14.4,  15.9,  15.6,   0.0,  0.00, 
 04/06/14, 06:00,   9.0,  90,  14.1,  15.8,  15.6,   0.0,  0.23, 
 04/06/14, 07:00,  11.3,  81,  14.0,  15.6,  15.6,   0.0,  1.11, 
 04/06/14, 08:00,  13.0,  73,  14.2,  15.5,  15.6,   0.0,  1.87, 
 04/06/14, 09:00,  14.1,  80,  14.7,  15.4,  15.6,   0.0,  2.55, 
 04/06/14, 10:00,  15.7,  69,  15.3,  15.3,  15.6,   0.0,  3.11, 
 04/06/14, 11:00,  16.9,  51,  16.2,  15.3,  15.6,   0.0,  3.49, 
 04/06/14, 12:00,  18.7,  47,  17.4,  15.4,  15.5,   0.0,  3.68, 
 04/06/14, 13:00,  19.3,  46,  18.6,  15.6,  15.6,   0.0,  3.61, 
 04/06/14, 14:00,  20.2,  37,  19.2,  15.7,  15.5,   0.0,  3.41, 
 04/06/14, 15:00,  19.5,  36,  19.1,  16.0,  15.6,   0.0,  3.00, 
 04/06/14, 16:00,  18.6,  48,  19.0,  16.4,  15.5,   0.0,  2.43, 
 04/06/14, 17:00,  17.4,  57,  19.2,  16.6,  15.5,   0.0,  1.73, 
 04/06/14, 18:00,  15.6,  62,  19.4,  16.7,  15.5,   0.0,  0.98, 
 04/06/14, 19:00,  13.6,  79,  19.0,  16.8,  15.5,   0.0,  0.27, 
 04/06/14, 20:00,  12.5,  75,  18.6,  16.9,  15.4,   0.0,  0.00, 
 04/06/14, 21:00,  11.1,  86,  18.2,  17.0,  15.6,   0.0,  0.00, 
 04/06/14, 22:00,   9.9,  87,  17.8,  17.0,  15.6,   0.0,  0.00, 
 04/06/14, 23:00,  10.0,  83,  17.4,  17.0,  15.6,   0.0,  0.00, 
 04/06/15, 00:00,   9.7,  83,  17.1,  17.0,  15.6,   0.0,  0.00, 
 04/06/15, 01:00,   9.7,  86,  16.7,  16.9,  15.6,   0.0,  0.00, 
 04/06/15, 02:00,   9.5,  93,  16.4,  16.8,  15.6,   0.0,  0.00, 
 04/06/15, 03:00,   9.8,  92,  16.0,  16.7,  15.6,   0.0,  0.00, 
 04/06/15, 04:00,   9.7,  97,  15.7,  16.7,  15.7,   0.0,  0.00, 
 04/06/15, 05:00,   9.7,  95,  15.5,  16.6,  15.6,   0.0,  0.00, 
 04/06/15, 06:00,  11.2,  89,  15.2,  16.4,  15.6,   0.0,  0.25, 
 04/06/15, 07:00,  13.6,  81,  15.1,  16.2,  15.6,   0.0,  1.02, 
 04/06/15, 08:00,  15.9,  72,  15.3,  16.2,  15.7,   0.0,  1.77, 
 04/06/15, 09:00,  16.2,  64,  15.7,  16.0,  15.5,   0.0,  2.43, 
 04/06/15, 10:00,  17.2,  57,  16.2,  15.9,  15.6,   0.0,  3.02, 
 04/06/15, 11:00,  19.0,  54,  17.0,  15.9,  15.6,   0.0,  3.39, 
 04/06/15, 12:00,  19.6,  53,  18.0,  16.0,  15.6,   0.0,  3.57, 
 04/06/15, 13:00,  19.9,  49,  19.2,  16.2,  15.7,   0.0,  3.54, 
 04/06/15, 14:00,  19.3,  51,  19.7,  16.4,  15.6,   0.0,  3.34, 
 04/06/15, 15:00,  19.8,  51,  19.7,  16.6,  15.6,   0.0,  2.93, 
 04/06/15, 16:00,  19.8,  57,  19.7,  16.8,  15.6,   0.0,  2.38, 
 04/06/15, 17:00,  19.0,  55,  19.9,  17.0,  15.6,   0.0,  1.72, 
 04/06/15, 18:00,  16.4,  65,  19.9,  17.1,  15.6,   0.0,  0.98, 
 04/06/15, 19:00,  15.1,  68,  19.6,  17.4,  15.7,   0.0,  0.30, 
 04/06/15, 20:00,  12.7,  80,  19.1,  17.5,  15.7,   0.0,  0.00, 
 04/06/15, 21:00,  12.7,  78,  18.6,  17.5,  15.7,   0.0,  0.00, 
 04/06/15, 22:00,  13.3,  70,  18.2,  17.5,  15.6,   0.0,  0.00, 
 04/06/15, 23:00,   9.9,  86,  17.8,  17.4,  15.6,   0.0,  0.00, 
 04/06/16, 00:00,   9.9,  75,  17.4,  17.5,  15.6,   0.0,  0.00, 
 04/06/16, 01:00,  11.5,  58,  17.0,  17.3,  15.7,   0.0,  0.00, 